Location: Ciserano
(45.5833°N, 9.6000°E)
Time: 21:02:47
(UTC+00:00)

SJ 16-02 - Visible Passes

Search period start: 16 April 2021 00:00
Search period end: 26 April 2021 00:00
Orbit: 605 x 617 km, 75.0° (Epoch: 16 April)

Date Brightness Start Highest point End Pass type
(mag) Time Alt. Az. Time Alt. Az. Time Alt. Az.
16 Apr 3.6 00:48:59 19° E 00:48:59 19° E 00:51:19 10° NE visible
16 Apr 1.8 02:25:58 42° W 02:26:22 43° WNW 02:30:38 10° N visible
17 Apr 2.9 01:03:41 31° ENE 01:03:41 31° ENE 01:06:47 10° NE visible
17 Apr 2.6 02:40:40 24° WNW 02:41:24 25° WNW 02:45:07 10° N visible
18 Apr 2.1 01:18:21 52° NE 01:18:21 52° NE 01:21:54 10° NNE visible
18 Apr 3.3 02:55:20 14° WNW 02:56:33 16° NW 02:59:16 10° NNW visible
18 Apr 4.2 23:56:02 10° ENE 23:56:02 10° ENE 23:56:14 10° ENE visible
19 Apr 1.7 01:33:00 58° NNW 01:33:00 58° NNW 01:36:46 10° NNE visible
20 Apr 3.7 00:10:39 18° ENE 00:10:39 18° ENE 00:12:23 10° NE visible
20 Apr 2.2 01:47:37 37° NW 01:47:37 37° NW 01:51:26 10° N visible
21 Apr 3.1 00:25:14 28° NE 00:25:14 28° NE 00:27:44 10° NNE visible
21 Apr 2.9 02:02:13 23° WNW 02:02:19 23° WNW 02:05:51 10° N visible
22 Apr 2.5 00:39:49 41° NNE 00:39:49 41° NNE 00:42:46 10° NNE visible
22 Apr 3.5 02:16:47 14° WNW 02:17:29 14° NW 02:19:51 10° NNW visible
22 Apr 4.2 23:17:23 10° ENE 23:17:23 10° ENE 23:17:33 10° ENE visible
23 Apr 2.3 00:54:21 43° NNW 00:54:21 43° NNW 00:57:35 10° NNE visible
23 Apr 3.7 23:31:55 18° ENE 23:31:55 18° ENE 23:33:24 10° NE visible
24 Apr 2.7 01:08:53 31° NW 01:08:53 31° NW 01:12:12 10° N visible
24 Apr 3.2 23:46:25 27° NE 23:46:25 27° NE 23:48:39 10° NNE visible
25 Apr 3.2 01:23:23 20° NW 01:23:23 20° NW 01:26:34 10° N visible
